Location: Epalinges
(46.5518°N, 6.6683°E)
Time: 14:12:39
(UTC+00:00)

Cosmos 1328 Rocket - Pass Details

Date: 20 June 2021
Orbit: 602 x 625 km, 82.5° (Epoch: 01 August)

Event Time Altitude Azimuth Distance (km) Brightness Sun altitude
Rises 02:24:38 0° 350° (N) 2,880 7.6 -10.2°
Reaches altitude 10° 02:26:52 10° 349° (N) 1,974 6.7 -10.0°
Maximum altitude 02:31:14 83° 264° (W) 624 3.5 -9.5°
Drops below altitude 10° 02:35:36 10° 175° (S) 1,972 5.7 -9.0°
Enters shadow 02:37:35 - 175° (S) 2,782 6.5 -8.8°
